Location: Fredericksburg
(30.2750°N, 98.8720°W)
Time: 08:38:33
(UTC-06:00)

Daily predictions for brighter satellites

Satellite Brightness Start Highest point End
(mag) Time Altitude Azimuth Time Altitude Azimuth Time Altitude Azimuth
PAYLOAD A 4.0 17:52:57 10° SSE 17:57:44 88° ENE 18:02:45 10° NNW
ATLAS 5 CENTAUR R/B 4.3 17:55:40 10° SSW 18:01:02 29° SE 18:21:04 10° E
Cosmos 2082 Rocket 2.7 17:56:56 10° N 18:02:07 36° ENE 18:07:19 10° SE
Cosmos 1500 3.3 17:58:44 10° N 18:02:33 57° E 18:06:20 10° SSE
CZ-2C R/B 2.5 17:58:07 10° SSE 18:03:02 64° ENE 18:08:06 10° N
USA 234 3.9 17:58:47 10° NNE 18:05:07 54° NW 18:11:25 10° WSW
Cosmos 1743 3.7 18:01:56 10° NNE 18:05:12 26° E 18:08:26 10° SE
BREEZE M DEB (TANK) 4.4 17:55:31 10° WSW 18:08:55 51° NW 18:12:46 10° NNE
Intercosmos 25 4.0 18:06:27 10° NNE 18:09:19 28° E 18:12:49 10° SE
Nadezhda 3 Rocket 4.0 18:04:55 10° S 18:11:04 75° E 18:17:19 10° N
Cosmos 1455 Rocket 4.4 18:11:37 10° NNW 18:15:49 44° W 18:20:02 10° SSW
GRACE-2 4.2 18:13:39 10° SSE 18:16:18 42° E 18:18:57 10° NNE
GRACE-1 4.1 18:14:04 10° SSE 18:16:44 44° E 18:19:24 10° NNE
Cosmos 1484 Rocket 3.5 18:14:34 10° SE 18:17:50 29° ENE 18:21:04 10° NNE
Meteor 1-19 Rocket 4.3 18:12:52 10° S 18:18:36 71° E 18:24:26 10° NNE
Delta 2 Rocket 3.9 18:15:38 10° WNW 18:18:55 34° N 18:21:53 14° ENE
KM-V1 2.9 18:18:45 10° W 18:21:28 68° N 18:22:48 18° E
Cosmos 2056 Rocket 3.6 18:17:32 10° S 18:22:49 61° ESE 18:28:04 10° NNE
SKYMED 2 3.7 18:19:32 10° NNE 18:23:48 56° E 18:28:03 10° S
OAO 1 4.5 18:19:06 10° WNW 18:24:34 78° NNE 18:30:04 10° ESE
SMAP 3.4 18:22:12 10° S 18:26:49 71° WSW 18:31:28 10° NNW
Okean 2 4.1 18:25:43 10° SSE 18:29:27 33° E 18:33:12 10° NNE
Cosmos 1892 Rocket 4.2 18:28:10 10° SSE 18:32:03 33° E 18:35:54 10° NNE
CORIOLIS 4.4 18:28:25 10° S 18:33:49 75° WSW 18:39:12 10° NNW
Cosmos 2369 Rocket 3.2 18:29:21 10° SSE 18:33:57 26° ESE 18:36:50 17° ENE
Cosmos 1624 Rocket 4.0 18:30:28 10° SSW 18:35:39 89° WNW 18:40:53 10° NNE
Okean 1-7 Rocket 4.2 18:33:57 10° SSW 18:38:23 60° W 18:42:49 10° N
CZ-4 R/B 3.5 18:36:49 10° SSW 18:40:30 31° W 18:44:11 10° NW
Meteor 2-9 Rocket 4.4 18:35:33 10° N 18:40:36 41° E 18:45:35 10° SSE
Meteor 1-23 Rocket 4.2 18:35:31 10° S 18:41:11 68° E 18:46:47 10° NNE
Meteor 2-4 Rocket 3.5 18:37:08 10° S 18:42:30 83° E 18:47:51 10° N
FALCON 9 R/B 4.0 18:11:45 10° W 18:43:23 74° N 18:49:06 21° ENE
Cosmos 1726 Rocket 4.3 18:40:09 10° NNE 18:44:08 32° E 18:48:07 10° SE
Meteor 2-8 Rocket 4.3 18:44:40 10° S 18:50:41 72° E 18:56:46 10° N
OAO 2 Rocket 4.3 18:46:46 10° SW 18:51:28 35° SSE 18:53:48 23° ESE
MSX 4.2 18:46:19 10° S 18:52:01 68° WSW 18:57:44 10° NNW
Cosmos 1340 2.8 18:48:43 10° S 18:52:21 48° E 18:53:52 29° NE
ATLAS 3B CENTAUR R/B 4.2 18:29:05 10° W 18:54:02 81° S 19:00:27 21° E
Cosmos 1934 Rocket 3.9 18:54:06 10° N 19:00:20 70° E 19:06:37 10° SSE
Cosmos 1943 Rocket 3.7 18:58:38 10° SE 19:01:06 18° ESE 19:01:06 18° ESE
Cosmos 1606 Rocket 3.5 18:59:17 10° N 19:03:45 70° E 19:08:11 10° SSE
METEOR-M 4.3 19:00:27 10° SE 19:05:29 45° ENE 19:10:33 10° N
Cosmos 1452 Rocket 3.4 19:06:30 10° S 19:11:42 71° ESE 19:14:16 31° NNE
COSMO-SKYMED 1 4.1 19:07:49 10° N 19:11:46 35° WNW 19:15:42 10° SW
Abrixas 3.3 19:10:46 10° NW 19:12:54 43° NW 19:12:54 43° NW
Cosmos 1666 3.2 19:12:55 10° NNW 19:16:45 60° W 19:20:34 10° S
Cosmos 1190 Rocket 3.8 19:13:12 10° N 19:18:25 70° ENE 19:23:34 10° SSE
Gbstr 26 Del rocket 4.4 19:27:39 10° SW 19:35:49 87° SE 19:38:33 46° NE
Cosmos 1833 Rocket 4.3 19:31:26 10° NW 19:36:27 34° WSW 19:41:27 10° SSW
Cosmos 1153 Rocket 4.3 19:32:39 10° N 19:38:45 66° E 19:44:48 10° SSE
Cosmos 2058 Rocket 3.2 19:39:37 70° WNW 19:39:45 71° W 19:44:07 10° S
Cosmos 1605 Rocket 4.1 19:39:42 10° N 19:45:55 70° W 19:52:00 10° S
Cosmos 2263 4.1 19:44:00 10° SSW 19:49:46 86° WNW 19:49:57 84° NNW
Cosmos 1420 Rocket 4.5 19:57:02 10° SSW 20:01:37 59° WSW 20:01:37 59° WSW
NOSS 3-4 (A) 4.5 20:04:51 10° NW 20:11:50 54° WSW 20:19:10 10° S
NOSS 3-4 (C) 4.4 20:04:56 10° NW 20:11:56 54° WSW 20:19:17 10° S
Cosmos 2369 Rocket 3.6 20:12:43 10° SW 20:17:44 32° WNW 20:18:42 30° NW
Cosmos 1943 Rocket 4.2 20:40:37 10° SW 20:42:42 22° SW 20:42:42 22° SW
